Beaver, WV

8:42 PM EST on January 23, 2017 (GMT -0500)
Raleigh County Memorial

Weather History for KBKW - July, 2014

Change the Weather History Date:

Sunday, July 6, 2014

  Actual Average Record
Temperature  
Mean Temperature 68 °F 71 °F  
Max Temperature 80 °F 80 °F 94 °F (1900)
Min Temperature 56 °F 61 °F 41 °F (1951)
Degree Days  
Heating Degree Days 0 0  
Month to date heating degree days 3 0  
Since 1 June heating degree days 15 39  
Since 1 July heating degree days 3 0  
Cooling Degree Days 3 6  
Month to date cooling degree days 30 36  
Year to date cooling degree days 276 188  
Since 1 June cooling degree days 201 147  
Growing Degree Days 18 (Base 50)    
Moisture  
Dew Point 54 °F    
Average Humidity 64    
Maximum Humidity 86    
Minimum Humidity 42    
Precipitation  
Precipitation 0.00 in 0.15 in 2.50 in (1910)
Month to date precipitation 0.08 0.90  
Year to date precipitation 18.06 22.06  
Snow  
Snow 0.00 in - - ()
Month to date snowfall 0.0  
Since 1 September snowfall 76.3  
Snow Depth 0.00 in    
Sea Level Pressure  
Sea Level Pressure 30.10 in    
Wind  
Wind Speed 6 mph (SW)    
Max Wind Speed 16 mph    
Max Gust Speed 22 mph    
Visibility 10 miles    
Events      
T = Trace of Precipitation, MM = Missing Value Source: NWS Daily Summary

Daily Weather History Graph

Daily Weather History Graph

Search for Another Location

Airport or City:

Trip Planner

Search our weather history database for the weather conditions in past years. The results will help you decide how hot, cold, wet, or windy it might be!

Date:

Astronomy

Jul. 06, 2014 Rise Set
Actual Time 6:08 AM EDT 8:49 PM EDT
Civil Twilight 5:37 AM EDT 9:20 PM EDT
Nautical Twilight 4:59 AM EDT 9:59 PM EDT
Astronomical Twilight 4:15 AM EDT 10:42 PM EDT
Moon 2:51 PM EDT (7/6) 1:22 AM EDT (7/6)
Length of Visible Light 15h 42m
Length of Day
14h 40m
Waxing Gibbous, 62% of the Moon is Illuminated
Jul 6
Waxing Gibbous
Jul 12
Full
Jul 18
Last Quarter
Jul 26
New
Aug 3
First Quarter

Hourly Weather History & Observations

Time (EDT) Temp. Dew Point Humidity Pressure Visibility Wind Dir Wind Speed Gust Speed Precip Events Conditions
12:51 AM 62.1 °F 50.0 °F 65% 30.15 in 10.0 mi SE 6.9 mph - N/A   Clear
1:51 AM 63.0 °F 51.1 °F 65% 30.14 in 10.0 mi SSE 8.1 mph - N/A   Clear
2:51 AM 61.0 °F 51.1 °F 70% 30.13 in 10.0 mi SSE 3.5 mph - N/A   Clear
3:51 AM 61.0 °F 52.0 °F 72% 30.12 in 10.0 mi SSE 5.8 mph - N/A   Clear
4:51 AM 57.9 °F 51.1 °F 78% 30.13 in 10.0 mi Calm Calm - N/A   Scattered Clouds
5:51 AM 55.9 °F 51.1 °F 84% 30.15 in 10.0 mi Calm Calm - N/A   Partly Cloudy
6:51 AM 59.0 °F 53.1 °F 81% 30.14 in 10.0 mi Calm Calm - N/A   Mostly Cloudy
7:51 AM 64.9 °F 54.0 °F 68% 30.14 in 10.0 mi SW 3.5 mph - N/A   Mostly Cloudy
8:51 AM 66.9 °F 55.0 °F 66% 30.14 in 10.0 mi WSW 4.6 mph - N/A   Scattered Clouds
9:51 AM 71.1 °F 55.9 °F 59% 30.13 in 10.0 mi WSW 8.1 mph - N/A   Partly Cloudy
10:51 AM 73.9 °F 55.9 °F 53% 30.12 in 10.0 mi SSW 5.8 mph - N/A   Clear
11:51 AM 77.0 °F 57.0 °F 50% 30.11 in 10.0 mi WSW 11.5 mph - N/A   Clear
12:51 PM 75.0 °F 55.0 °F 50% 30.10 in 10.0 mi WSW 8.1 mph - N/A   Mostly Cloudy
1:51 PM 78.8 °F 55.4 °F 44% 30.18 in 10.0 mi West 13.8 mph 18.4 mph N/A   Partly Cloudy
2:51 PM 78.1 °F 54.0 °F 43% 30.07 in 10.0 mi SW 12.7 mph 18.4 mph N/A   Clear
3:51 PM 79.0 °F 54.0 °F 42% 30.04 in 10.0 mi SSW 12.7 mph - N/A   Clear
4:51 PM 79.0 °F 55.0 °F 44% 30.04 in 10.0 mi SW 6.9 mph - N/A   Partly Cloudy
5:51 PM 78.8 °F 55.4 °F 44% 30.11 in 10.0 mi West 9.2 mph - N/A   Partly Cloudy
6:51 PM 78.1 °F 55.0 °F 45% 30.01 in 10.0 mi SW 8.1 mph - N/A   Mostly Cloudy
7:51 PM 75.9 °F 55.0 °F 48% 30.01 in 10.0 mi WSW 5.8 mph - N/A   Clear
8:51 PM 72.0 °F 54.0 °F 53% 30.01 in 10.0 mi SW 5.8 mph - N/A   Clear
9:51 PM 69.1 °F 55.0 °F 61% 30.01 in 10.0 mi South 4.6 mph - N/A   Clear
10:51 PM 66.2 °F 55.4 °F 68% 30.11 in 10.0 mi South 5.8 mph - N/A   Clear
11:51 PM 66.9 °F 53.1 °F 61% 30.01 in 10.0 mi SSW 3.5 mph - N/A   Clear